Location: Dead Woman Crossing
(43.5369°N, 106.3228°W)
Time: 01:33:47
(UTC+00:00)

BEESAT 2 - Pass Details

Date: 29 June 2022
Orbit: 481 x 508 km, 64.9° (Epoch: 07 August)

Event Time Altitude Azimuth Distance (km) Brightness Sun altitude
Rises 03:35:33 0° 322° (NW) 2,625 ? -7.3°
Reaches altitude 10° 03:37:45 10° 318° (NW) 1,736 ? -7.6°
Maximum altitude 03:41:34 57° 240° (WSW) 607 ? -8.1°
Drops below altitude 10° 03:45:21 10° 161° (SSE) 1,723 ? -8.6°
Enters shadow 03:45:35 - 161° (SSE) 1,820 ? -8.6°
